When you browse on this site, cookies collect data to enhance your experience and personalize the content and advertising you see.
Visit our Privacy Policy to learn more. By continuing to use the site, you agree to this use of cookies and data.
  • In Switzerland
  • List of Countries
  • For 7 days
  • Water Temperature
  • Weather Map
  • Weather Widgets
  • user-avatar
    Login

    Hourly Weather Zhytomyr

    Today, 10 April, Friday

    Time Temperature Precipitation Wind Pressure Humidity
    00:00 +11°C° 0 mm 3 mps 742 mmHg 60%
    01:00 +10°C° 0 mm 3 mps 741 mmHg 63%
    02:00 +10°C° 0 mm 4 mps 741 mmHg 66%
    03:00 +8°C° 0.1 mm 4 mps 741 mmHg 73%
    04:00 +8°C° 0.1 mm 4 mps 741 mmHg 80%
    05:00 +8°C° 0.1 mm 4 mps 742 mmHg 87%
    06:00 +8°C° 0.1 mm 5 mps 742 mmHg 80%
    07:00 +8°C° 0.1 mm 6 mps 742 mmHg 74%
    08:00 +9°C° 0 mm 6 mps 743 mmHg 67%
    09:00 +9°C° 0.1 mm 7 mps 743 mmHg 63%
    10:00 +8°C° 0.1 mm 7 mps 744 mmHg 59%
    11:00 +8°C° 0.1 mm 7 mps 744 mmHg 56%
    12:00 +8°C° 0 mm 7 mps 745 mmHg 49%
    13:00 +9°C° 0 mm 7 mps 745 mmHg 41%
    14:00 +10°C° 0 mm 7 mps 745 mmHg 35%
    15:00 +10°C° 0 mm 7 mps 745 mmHg 35%
    16:00 +9°C° 0 mm 6 mps 745 mmHg 35%
    17:00 +9°C° 0 mm 6 mps 745 mmHg 35%
    18:00 +7°C° 0 mm 5 mps 745 mmHg 41%
    19:00 +6°C° 0 mm 4 mps 746 mmHg 47%
    20:00 +5°C° 0 mm 3 mps 746 mmHg 53%
    21:00 +4°C° 0 mm 3 mps 746 mmHg 56%
    22:00 +4°C° 0 mm 3 mps 746 mmHg 59%
    23:00 +3°C° 0 mm 3 mps 746 mmHg 62%

    Tomorrow, 11 April, Saturday

    Time Temperature Precipitation Wind Pressure Humidity
    00:00 +3°C° 0 mm 3 mps 747 mmHg 62%
    01:00 +2°C° 0 mm 3 mps 747 mmHg 62%
    02:00 +2°C° 0 mm 3 mps 747 mmHg 62%
    03:00 +1°C° 0 mm 3 mps 747 mmHg 62%
    04:00 +1°C° 0 mm 3 mps 747 mmHg 63%
    05:00 +1°C° 0 mm 3 mps 747 mmHg 63%
    06:00 +2°C° 0 mm 3 mps 747 mmHg 59%
    07:00 +4°C° 0 mm 3 mps 747 mmHg 55%
    08:00 +5°C° 0 mm 4 mps 747 mmHg 52%
    09:00 +6°C° 0 mm 4 mps 748 mmHg 49%
    10:00 +8°C° 0 mm 5 mps 748 mmHg 46%
    11:00 +9°C° 0 mm 6 mps 748 mmHg 43%
    12:00 +9°C° 0 mm 6 mps 748 mmHg 40%
    13:00 +10°C° 0 mm 6 mps 748 mmHg 38%
    14:00 +10°C° 0 mm 6 mps 748 mmHg 35%
    15:00 +10°C° 0 mm 6 mps 748 mmHg 36%
    16:00 +9°C° 0 mm 6 mps 748 mmHg 37%
    17:00 +9°C° 0 mm 6 mps 748 mmHg 38%
    18:00 +7°C° 0 mm 5 mps 749 mmHg 42%
    19:00 +6°C° 0 mm 4 mps 749 mmHg 47%
    20:00 +4°C° 0 mm 3 mps 750 mmHg 51%
    21:00 +3°C° 0 mm 3 mps 750 mmHg 52%
    22:00 +3°C° 0 mm 3 mps 750 mmHg 53%
    23:00 +3°C° 0 mm 2 mps 751 mmHg 54%

    Day after tomorrow, 12 April, Sunday

    Time Temperature Precipitation Wind Pressure Humidity
    00:00 +2°C° 0 mm 2 mps 751 mmHg 55%
    01:00 +2°C° 0 mm 2 mps 751 mmHg 55%
    02:00 +2°C° 0 mm 1 mps 751 mmHg 56%
    03:00 +2°C° 0 mm 1 mps 751 mmHg 57%
    04:00 +1°C° 0 mm 1 mps 751 mmHg 59%
    05:00 0°C° 0 mm 0 mps 751 mmHg 60%
    06:00 +1°C° 0 mm 0 mps 751 mmHg 55%
    07:00 +4°C° 0 mm 1 mps 751 mmHg 51%
    08:00 +5°C° 0 mm 1 mps 751 mmHg 46%
    09:00 +5°C° 0 mm 2 mps 751 mmHg 43%
    10:00 +7°C° 0 mm 2 mps 751 mmHg 39%
    11:00 +8°C° 0 mm 2 mps 751 mmHg 36%
    12:00 +8°C° 0 mm 2 mps 750 mmHg 35%
    13:00 +9°C° 0 mm 3 mps 750 mmHg 33%
    14:00 +10°C° 0 mm 3 mps 749 mmHg 32%
    15:00 +10°C° 0 mm 3 mps 749 mmHg 33%
    16:00 +11°C° 0 mm 3 mps 748 mmHg 35%
    17:00 +11°C° 0 mm 3 mps 748 mmHg 36%
    18:00 +9°C° 0 mm 3 mps 747 mmHg 41%
    19:00 +8°C° 0 mm 3 mps 747 mmHg 46%
    20:00 +7°C° 0 mm 3 mps 746 mmHg 51%
    21:00 +7°C° 0 mm 3 mps 746 mmHg 52%
    22:00 +5°C° 0 mm 3 mps 746 mmHg 54%
    23:00 +5°C° 0 mm 4 mps 745 mmHg 55%

    13 April, Monday

    Time Temperature Precipitation Wind Pressure Humidity
    00:00 +5°C° 0 mm 4 mps 745 mmHg 56%
    01:00 +5°C° 0 mm 4 mps 745 mmHg 57%
    02:00 +5°C° 0 mm 4 mps 744 mmHg 58%
    03:00 +5°C° 0 mm 4 mps 744 mmHg 62%
    04:00 +4°C° 0 mm 4 mps 744 mmHg 66%
    05:00 +4°C° 0 mm 4 mps 743 mmHg 70%
    06:00 +6°C° 0 mm 4 mps 743 mmHg 68%
    07:00 +7°C° 0 mm 4 mps 743 mmHg 65%
    08:00 +10°C° 0 mm 4 mps 743 mmHg 63%
    09:00 +12°C° 0 mm 4 mps 742 mmHg 57%
    10:00 +14°C° 0 mm 5 mps 742 mmHg 51%
    11:00 +16°C° 0 mm 5 mps 741 mmHg 45%
    12:00 +17°C° 0 mm 6 mps 741 mmHg 44%
    13:00 +17°C° 0 mm 6 mps 740 mmHg 42%
    14:00 +19°C° 0 mm 6 mps 740 mmHg 41%
    15:00 +17°C° 0 mm 6 mps 739 mmHg 43%
    16:00 +17°C° 0 mm 5 mps 739 mmHg 46%
    17:00 +16°C° 0 mm 5 mps 738 mmHg 48%
    18:00 +15°C° 0 mm 5 mps 738 mmHg 51%
    19:00 +14°C° 0 mm 4 mps 737 mmHg 55%
    20:00 +13°C° 0 mm 4 mps 737 mmHg 58%
    21:00 +13°C° 0 mm 5 mps 736 mmHg 57%
    22:00 +13°C° 0 mm 6 mps 736 mmHg 55%
    23:00 +11°C° 0 mm 8 mps 736 mmHg 53%

    14 April, Tuesday

    Time Temperature Precipitation Wind Pressure Humidity
    00:00 +11°C° 0 mm 7 mps 735 mmHg 54%
    01:00 +10°C° 0 mm 7 mps 734 mmHg 56%
    02:00 +9°C° 0 mm 6 mps 734 mmHg 57%
    03:00 +9°C° 0 mm 6 mps 733 mmHg 60%
    04:00 +9°C° 0 mm 5 mps 733 mmHg 63%
    05:00 +9°C° 0 mm 5 mps 733 mmHg 66%
    06:00 +9°C° 0.2 mm 5 mps 733 mmHg 71%
    07:00 +9°C° 0.2 mm 5 mps 734 mmHg 76%
    08:00 +9°C° 0.2 mm 5 mps 734 mmHg 80%
    09:00 +7°C° 0.8 mm 6 mps 734 mmHg 85%
    10:00 +3°C° 0.8 mm 7 mps 735 mmHg 89%
    11:00 0°C° 0.8 mm 7 mps 736 mmHg 94%
    12:00 +2°C° 0.5 mm 7 mps 736 mmHg 86%
    13:00 +2°C° 0.5 mm 6 mps 737 mmHg 78%
    14:00 +3°C° 0.5 mm 5 mps 738 mmHg 70%
    15:00 +3°C° 0 mm 5 mps 738 mmHg 64%
    16:00 +3°C° 0 mm 6 mps 738 mmHg 59%
    17:00 +3°C° 0 mm 6 mps 738 mmHg 53%
    18:00 +3°C° 0 mm 5 mps 738 mmHg 55%
    19:00 +3°C° 0 mm 4 mps 738 mmHg 58%
    20:00 +3°C° 0 mm 3 mps 739 mmHg 61%
    21:00 +2°C° 0 mm 3 mps 739 mmHg 64%
    22:00 0°C° 0 mm 4 mps 739 mmHg 67%
    23:00 -1°C° 0 mm 4 mps 739 mmHg 70%

    15 April, Wednesday

    Time Temperature Precipitation Wind Pressure Humidity
    00:00 -1°C° 0 mm 4 mps 739 mmHg 73%
    01:00 -1°C° 0 mm 4 mps 739 mmHg 75%
    02:00 -1°C° 0 mm 5 mps 739 mmHg 78%
    03:00 -2°C° 0.1 mm 5 mps 739 mmHg 81%
    04:00 -2°C° 0.1 mm 5 mps 739 mmHg 84%
    05:00 -2°C° 0.1 mm 5 mps 740 mmHg 87%
    06:00 -3°C° 0.1 mm 6 mps 740 mmHg 81%
    07:00 -2°C° 0.1 mm 7 mps 740 mmHg 75%
    08:00 -2°C° 0.1 mm 7 mps 740 mmHg 70%
    09:00 -1°C° 0.1 mm 7 mps 740 mmHg 67%
    10:00 0°C° 0.1 mm 7 mps 740 mmHg 64%
    11:00 0°C° 0.1 mm 7 mps 740 mmHg 61%
    12:00 +2°C° 0.1 mm 7 mps 740 mmHg 59%
    13:00 +3°C° 0.1 mm 7 mps 740 mmHg 57%
    14:00 +4°C° 0.1 mm 7 mps 740 mmHg 55%
    15:00 +4°C° 0 mm 7 mps 739 mmHg 58%
    16:00 +4°C° 0 mm 7 mps 739 mmHg 60%
    17:00 +4°C° 0 mm 7 mps 738 mmHg 63%
    18:00 +3°C° 0.4 mm 7 mps 737 mmHg 74%
    19:00 0°C° 0.4 mm 8 mps 736 mmHg 84%
    20:00 -1°C° 0.4 mm 8 mps 736 mmHg 95%
    21:00 -1°C° 1.2 mm 7 mps 735 mmHg 95%
    22:00 -1°C° 1.2 mm 7 mps 734 mmHg 94%
    23:00 +1°C° 1.2 mm 6 mps 733 mmHg 94%
    Show more